Location: Bakersfield
(35.3730°N, 119.0180°W)
Time: 01:25:09
(UTC-07:00)

Daily predictions for brighter satellites

Satellite Brightness Start Highest point End
(mag) Time Altitude Azimuth Time Altitude Azimuth Time Altitude Azimuth
ATLAS 5 CENTAUR R/B 4.0 03:30:34 31° E 03:30:34 31° E 03:34:51 10° ESE
Lacrosse 5 4.0 03:54:26 21° NNE 03:54:26 21° NNE 03:56:10 10° NNE
CZ-2D R/B 4.4 03:46:25 10° N 03:47:32 17° N 03:47:32 17° N
SL-16 R/B 4.4 03:48:36 10° N 03:52:58 22° ENE 03:57:18 10° ESE
NOSS 3-2 (A) 4.0 03:56:36 72° NNE 03:57:15 77° ENE 04:05:24 10° SE
Cosmos 2227 Rocket 3.5 04:03:30 33° NNE 04:03:30 33° NNE 04:06:32 10° NNE
Cosmos 2297 Rocket 3.0 04:11:35 46° NNE 04:11:35 46° NNE 04:15:29 10° NNE
Resurs 1-4 Rocket 4.2 04:05:05 10° N 04:06:22 17° N 04:06:22 17° N
USA 215 3.1 04:09:40 10° SE 04:16:13 89° NE 04:16:19 87° N
Cosmos 1898 Rocket 4.3 04:20:20 45° ESE 04:20:51 47° ESE 04:25:55 10° NNE
Okean O Rocket 3.2 04:19:18 10° NNE 04:21:33 29° NNE 04:21:33 29° NNE
DELTA 2 R/B (1) 3.8 04:25:15 65° NE 04:25:15 65° NE 04:30:03 10° ENE
ADEOS Rocket 4.1 04:18:11 10° NNE 04:24:47 45° E 04:30:42 10° S
NOSS 3-2 (C) 3.9 04:28:57 10° NW 04:36:37 77° WSW 04:44:46 10° SSE
CZ-4B DEB 4.4 04:31:57 10° NNE 04:37:26 68° ESE 04:39:25 39° S
Cosmos 1892 Rocket 4.0 04:39:22 58° NE 04:39:22 58° NE 04:43:07 10° NNE
NOSS 2-2 (C) 4.4 04:45:43 38° SE 04:46:21 41° ESE 04:50:30 10° NE
NOSS 2-2 (E) 4.1 04:47:11 47° SE 04:47:38 49° ESE 04:52:00 10° NE
Cosmos 2228 4.2 04:48:46 10° N 04:52:57 42° E 04:57:04 10° SSE
Cosmos 2100 Rocket 4.0 04:46:59 10° N 04:53:16 81° E 04:59:35 10° S
PAYLOAD B 4.1 04:48:29 10° N 04:53:59 74° WNW 04:55:21 51° SW
Tiangong 1 3.6 04:56:05 17° NNE 04:56:05 17° NNE 04:57:27 10° NE
Cosmos 1802 Rocket 4.3 04:49:57 10° N 04:56:04 67° E 05:02:08 10° SSE
Cosmos 2061 Rocket 4.1 04:50:04 10° N 04:56:25 77° E 05:02:48 10° S
Meteor 1-15 Rocket 4.2 04:56:51 10° N 05:02:27 81° E 05:08:06 10° S
Cosmos 724 4.4 04:56:53 10° NNW 05:03:09 83° ENE 05:09:21 10° SSE
CZ-2C R/B 4.0 05:04:19 48° NW 05:04:19 48° NW 05:07:55 10° NNW
ADEOS II 2.5 04:58:33 10° NNE 05:03:47 63° ESE 05:08:58 10° S
CZ-4B R/B 3.4 05:07:17 10° N 05:11:26 47° WNW 05:11:26 47° WNW
ATLAS 5 CENTAUR R/B 2.8 05:12:20 35° W 05:13:49 41° WSW 05:19:51 10° S
CZ-4B R/B 3.4 05:10:10 10° N 05:15:23 49° WNW 05:17:28 33° SW
Cosmos 2237 Rocket 4.2 05:20:18 11° SSW 05:20:18 11° SSW 05:20:34 10° SSW
Cosmos 1000 Rocket 4.5 05:12:10 10° SSW 05:18:25 63° W 05:24:42 10° N
Cosmos 2227 4.3 05:15:18 10° SSW 05:21:03 83° ESE 05:26:50 10° NNE
Okean 2 4.3 05:22:22 31° NW 05:22:22 31° NW 05:25:18 10° NNW
Meteor PRIRODA 3.7 05:18:25 10° NNE 05:22:09 77° ESE 05:25:50 10° S
Feng Yun 1-1 Rocket 4.4 05:16:29 10° NNE 05:22:12 80° ESE 05:28:02 10° S
Cosmos 292 Rocket 4.0 05:18:09 10° NNW 05:22:48 45° WSW 05:27:23 10° S
Meteor 2-4 Rocket 4.3 05:22:23 31° WSW 05:23:56 37° WNW 05:29:22 10° N
Cosmos 2298 Rocket 4.5 05:23:05 34° W 05:24:24 39° WNW 05:29:22 10° N
Cosmos 2058 Rocket 3.1 05:20:36 10° NNW 05:24:50 52° W 05:29:04 10° S
Cosmos 2016 Rocket 3.9 05:19:32 10° N 05:25:53 84° W 05:32:08 10° S
MOS 1 Rocket 3.9 05:22:32 10° NNE 05:27:25 65° E 05:32:34 10° S
Aureole 2 Rocket 2.0 05:24:23 10° NNW 05:27:41 72° WSW 05:30:41 10° S
Okean-O 2.5 05:26:27 10° N 05:30:52 71° WNW 05:35:16 10° SSW
Cosmos 2173 Rocket 4.0 05:25:09 10° NNW 05:31:03 53° W 05:37:00 10° SSW
USA 116 4.2 05:26:03 10° SSE 05:31:12 89° ENE 05:35:52 10° NNW
Cosmos 990 Rocket 3.9 05:26:38 12° SSW 05:31:32 70° WNW 05:36:47 10° NNE
USA 129 4.2 05:30:08 10° SE 05:31:41 21° ENE 05:33:09 10° NNE
SL-08 R/B 4.5 05:28:43 10° N 05:35:00 85° W 05:41:21 10° S
Lacrosse 5 3.9 05:33:39 12° NW 05:35:05 13° NNW 05:37:21 10° N
Thor Agena Rocket 3.6 05:30:48 10° S 05:35:58 54° W 05:41:09 10° NNW
Cosmos 192 4.5 05:31:20 10° NNW 05:36:17 78° ENE 05:41:11 10° SSE
Cosmos 1459 Rocket 4.2 05:30:44 10° NNW 05:36:46 47° W 05:42:43 10° SSW
COBE Rocket 3.9 05:32:10 10° NNE 05:36:55 80° E 05:41:34 10° S
FALCON 9 R/B 3.9 05:32:05 21° WSW 05:37:05 71° SSE 06:02:49 10° E
SL-16 R/B 2.4 05:31:53 10° NW 05:37:18 47° WSW 05:42:40 10° S
Cosmos 2123 Rocket 3.9 05:35:23 10° S 05:41:32 76° W 05:47:44 10° N
Cosmos 2227 Rocket 4.2 05:45:21 11° NW 05:45:47 11° NW 05:46:58 10° NW
Cosmos 1626 Rocket 3.7 05:44:58 10° SSW 05:49:13 50° W 05:53:28 10° N
Cosmos 1174 3.8 05:47:12 10° NNW 05:50:15 60° ENE 05:53:43 10° SE
Cosmos 2297 Rocket 4.0 05:53:25 12° WNW 05:54:35 13° NW 05:56:58 10° NNW
Intercosmos 25 Rocket 4.4 05:50:51 10° N 05:54:45 64° E 06:00:47 10° SSE
OAO 2 Rocket 3.5 05:54:00 17° WSW 05:58:10 79° S 06:03:31 10° E
USA 215 4.5 05:55:06 10° SSW 05:59:38 20° WSW 06:03:43 12° W
Delta 2 Rocket 3.7 06:01:16 16° W 06:04:00 40° SSW 06:07:19 10° SE
Cosmos 2098 Rocket 3.9 06:00:39 10° NNW 06:04:35 35° W 06:09:28 10° SSW
Cosmos 1125 Rocket 3.5 06:04:11 10° SSW 06:09:21 82° WNW 06:14:35 10° NNE
ADEOS Rocket 4.1 06:04:10 10° N 06:09:52 28° WNW 06:15:06 10° WSW
DELTA 2 R/B (1) 4.0 06:06:02 11° WNW 06:11:15 55° N 06:16:45 10° ENE
Meteor 1-22 Rocket 4.4 06:12:09 10° N 06:17:44 82° E 06:23:31 10° S
CENTAUR R/B 3.2 06:10:22 10° NW 06:18:12 58° WSW 06:26:19 10° SSE
Cosmos 1943 4.0 06:13:31 10° NNW 06:19:05 58° ENE 06:24:36 10° SE
Cosmos 1758 Rocket 4.1 06:16:55 10° S 06:21:12 64° E 06:25:28 10° NNE
SKYMED 2 3.6 06:17:04 10° SSE 06:21:24 87° WSW 06:25:45 10° NNW
Cosmos 1766 3.8 06:19:51 10° N 06:23:51 65° E 06:27:47 10° SSE
Cosmos 1603 3.9 06:19:26 10° NNW 06:24:57 51° WSW 06:30:24 10° S
